Terminal Aerodrome Forecast
Issued by NWS Caribou, ME

Home | Current Version | Previous Version | Text Only | Print | Product List | Glossary On
Versions: 1 2 3 4 5 6 7 8 9 10 11 12 13 14 15 16 17
000
FTUS41 KCAR 211600 AAB
TAFBGR
TAF AMD
KBGR 211620Z 2116/2212 19009KT 6SM -SHRA BKN008 OVC015
     FM211800 17010KT P6SM VCSH BKN035 OVC050
     FM220000 15006KT 3SM BR OVC005
     FM220400 00000KT 1SM BR OVC002=

USA.gov is the U.S. government's official web portal to all federal, state and local government web resources and services.